,,,PA_Meas_PMT16A,,PR_Meas_QMR101_102,,RH_Meas_QMH101,,SR_Meas_QMS101,,TA_Meas_QMH101,,GenWind,,GenWind,
date,time,status,PA,status,PR,status,RH,status,SR,status,TA,status,DirAvg,status,SpdAvg,
2009-04-07, 00:00:04,VALID,1000.13,VALID,0,VALID,94.6454,VALID,0,VALID,23.3695,VALID,4,VALID,0.386719,
2009-04-07, 00:01:04,VALID,1000.13,VALID,0,VALID,94.5539,VALID,0,VALID,23.3695,VALID,97,VALID,0.657422,
2009-04-07, 00:02:04,VALID,1000.07,VALID,0,VALID,94.5539,VALID,0,VALID,23.35,VALID,116,VALID,0.957812,
2009-04-07, 00:03:04,VALID,1000.08,VALID,0,VALID,94.5386,VALID,0,VALID,23.3695,VALID,115,VALID,0.478125,
2009-04-07, 00:04:04,VALID,1000.03,VALID,0,VALID,94.531,VALID,0,VALID,23.3695,VALID,115,VALID,0.359375,
2009-04-07, 00:05:04,VALID,1000,VALID,0,VALID,94.5234,VALID,0,VALID,23.3695,VALID,115,VALID,0.521875,
2009-04-07, 00:06:04,VALID,1000.02,VALID,0,VALID,94.531,VALID,0,VALID,23.389,VALID,112,VALID,0.425,
2009-04-07, 00:07:04,VALID,1000.01,VALID,0,VALID,94.5234,VALID,0,VALID,23.3695,VALID,112,VALID,0.579297,
2009-04-07, 00:08:04,VALID,999.956,VALID,0,VALID,94.5157,VALID,0,VALID,23.389,VALID,112,VALID,0.454688,
2009-04-07, 00:09:04,VALID,999.935,VALID,0,VALID,94.5234,VALID,0,VALID,23.3908,VALID,112,VALID,0.397266,
2009-04-07, 00:10:04,VALID,999.942,VALID,0,VALID,94.4776,VALID,0,VALID,23.3695,VALID,108,VALID,0.467578,
2009-04-07, 00:11:04,VALID,999.903,VALID,0,VALID,94.5234,VALID,0,VALID,23.3695,VALID,101,VALID,0.49375,
2009-04-07, 00:12:04,VALID,999.908,VALID,0,VALID,94.4013,VALID,0,VALID,23.3908,VALID,56,VALID,0.546484,
2009-04-07, 00:13:04,VALID,999.866,VALID,0,VALID,94.3555,VALID,0,VALID,23.3305,VALID,6,VALID,0.607031,
2009-04-07, 00:14:04,VALID,999.819,VALID,0,VALID,94.4623,VALID,0,VALID,23.3713,VALID,6,VALID,0.610937,
2009-04-07, 00:15:04,VALID,999.816,VALID,0,VALID,94.4394,VALID,0,VALID,23.3305,VALID,6,VALID,0.566016,
2009-04-07, 00:16:04,VALID,999.823,VALID,0,VALID,94.4394,VALID,0,VALID,23.3305,VALID,6,VALID,0.312891,
2009-04-07, 00:17:04,VALID,999.781,VALID,0,VALID,94.4165,VALID,0,VALID,23.311,VALID,6,VALID,0.0410156,
2009-04-07, 00:18:04,VALID,999.77,VALID,0,VALID,94.3174,VALID,0,VALID,23.2524,VALID,6,VALID,0,
2009-04-07, 00:19:04,VALID,999.738,VALID,0,VALID,94.386,VALID,0,VALID,23.2329,VALID,6,VALID,0,
2009-04-07, 00:20:04,VALID,999.734,VALID,0,VALID,94.5615,VALID,0,VALID,23.2719,VALID,6,VALID,0.473437,
2009-04-07, 00:21:04,VALID,999.703,VALID,0,VALID,94.7065,VALID,0,VALID,23.3305,VALID,6,VALID,0.397266,
2009-04-07, 00:22:04,VALID,999.654,VALID,0,VALID,94.7141,VALID,0,VALID,23.3695,VALID,2,VALID,0.442187,
2009-04-07, 00:23:04,VALID,999.651,VALID,0,VALID,94.7294,VALID,0,VALID,23.3695,VALID,2,VALID,0.134375,
2009-04-07, 00:24:04,VALID,999.622,VALID,0,VALID,94.7523,VALID,0.112286,VALID,23.3695,VALID,2,VALID,0.250391,
2009-04-07, 00:25:04,VALID,999.63,VALID,0,VALID,94.7523,VALID,0,VALID,23.4103,VALID,9,VALID,0.379297,
2009-04-07, 00:26:04,VALID,999.602,VALID,0,VALID,94.7065,VALID,0,VALID,23.4085,VALID,9,VALID,0.458203,
2009-04-07, 00:27:04,VALID,999.625,VALID,0,VALID,94.5997,VALID,0,VALID,23.389,VALID,9,VALID,0.416016,
2009-04-07, 00:28:04,VALID,999.594,VALID,0,VALID,94.676,VALID,0,VALID,23.4085,VALID,19,VALID,0.503906,
2009-04-07, 00:29:04,VALID,999.566,VALID,0,VALID,94.5157,VALID,0,VALID,23.389,VALID,57,VALID,0.756641,
2009-04-07, 00:30:04,VALID,999.546,VALID,0,VALID,94.5691,VALID,0,VALID,23.3695,VALID,59,VALID,0.433594,
2009-04-07, 00:31:04,VALID,999.514,VALID,0,VALID,94.5691,VALID,0,VALID,23.3677,VALID,59,VALID,0.475781,
2009-04-07, 00:32:04,VALID,999.521,VALID,0,VALID,94.5081,VALID,0,VALID,23.3695,VALID,59,VALID,0.287109,
2009-04-07, 00:33:04,VALID,999.515,VALID,0,VALID,94.3708,VALID,0,VALID,23.3305,VALID,59,VALID,0.290234,
2009-04-07, 00:34:04,VALID,999.49,VALID,0,VALID,94.3555,VALID,0,VALID,23.311,VALID,59,VALID,0.141016,
2009-04-07, 00:35:04,VALID,999.498,VALID,0,VALID,94.3784,VALID,0,VALID,23.2719,VALID,59,VALID,0.155078,
2009-04-07, 00:36:04,VALID,999.51,VALID,0,VALID,94.3479,VALID,0,VALID,23.2524,VALID,59,VALID,0.151953,
2009-04-07, 00:37:04,VALID,999.477,VALID,0,VALID,94.4852,VALID,0,VALID,23.2524,VALID,109,VALID,0.30625,
2009-04-07, 00:38:04,VALID,999.462,VALID,0,VALID,94.5997,VALID,0,VALID,23.2915,VALID,109,VALID,0.517187,
2009-04-07, 00:39:04,VALID,999.47,VALID,0,VALID,94.5768,VALID,0,VALID,23.2915,VALID,109,VALID,0.5375,
2009-04-07, 00:40:04,VALID,999.469,VALID,0,VALID,94.6226,VALID,0,VALID,23.2915,VALID,109,VALID,0.584375,
2009-04-07, 00:41:04,VALID,999.473,VALID,0,VALID,94.5997,VALID,0,VALID,23.2915,VALID,107,VALID,0.675,
2009-04-07, 00:42:04,VALID,999.411,VALID,0,VALID,94.6149,VALID,0,VALID,23.2915,VALID,103,VALID,0.722266,
2009-04-07, 00:43:04,VALID,999.406,VALID,0,VALID,94.5844,VALID,0,VALID,23.2915,VALID,103,VALID,0.692187,
2009-04-07, 00:44:04,VALID,999.361,VALID,0,VALID,94.5768,VALID,0.112286,VALID,23.2915,VALID,102,VALID,0.707422,
2009-04-07, 00:45:04,VALID,999.342,VALID,0,VALID,94.5691,VALID,0,VALID,23.3127,VALID,103,VALID,0.558203,
2009-04-07, 00:46:04,VALID,999.315,VALID,0,VALID,94.5691,VALID,0,VALID,23.2719,VALID,103,VALID,0.364062,
2009-04-07, 00:47:04,VALID,999.294,VALID,0,VALID,94.5615,VALID,0,VALID,23.2915,VALID,103,VALID,0.285156,
2009-04-07, 00:48:04,VALID,999.316,VALID,0,VALID,94.5615,VALID,0,VALID,23.2719,VALID,103,VALID,0.147266,
2009-04-07, 00:49:04,VALID,999.296,VALID,0,VALID,94.5234,VALID,0,VALID,23.2524,VALID,103,VALID,0.01875,
2009-04-07, 00:50:04,VALID,999.312,VALID,0,VALID,94.4852,VALID,0,VALID,23.2329,VALID,103,VALID,0.065625,
2009-04-07, 00:51:04,VALID,999.332,VALID,0,VALID,94.47,VALID,0.112286,VALID,23.2134,VALID,103,VALID,0,
2009-04-07, 00:52:04,VALID,999.277,VALID,0,VALID,94.47,VALID,0,VALID,23.1939,VALID,103,VALID,0,
2009-04-07, 00:53:04,VALID,999.227,VALID,0,VALID,94.4776,VALID,0.112286,VALID,23.1549,VALID,103,VALID,0,
2009-04-07, 00:54:04,VALID,999.201,VALID,0,VALID,94.5081,VALID,0,VALID,23.1549,VALID,103,VALID,0.116406,
2009-04-07, 00:55:04,VALID,999.173,VALID,0,VALID,94.5386,VALID,0.112286,VALID,23.1549,VALID,102,VALID,0.253125,
2009-04-07, 00:56:04,VALID,999.156,VALID,0,VALID,94.6073,VALID,0,VALID,23.1549,VALID,102,VALID,0.371484,
2009-04-07, 00:57:04,VALID,999.156,VALID,0,VALID,94.6149,VALID,0,VALID,23.1549,VALID,102,VALID,0.309375,
2009-04-07, 00:58:04,VALID,999.12,VALID,0,VALID,94.5844,VALID,0.112286,VALID,23.1354,VALID,102,VALID,0.287109,
2009-04-07, 00:59:04,VALID,999.165,VALID,0,VALID,94.6302,VALID,0.112286,VALID,23.1354,VALID,102,VALID,0.292578,
2009-04-07, 01:00:04,VALID,999.143,VALID,0,VALID,94.6607,VALID,0,VALID,23.1354,VALID,102,VALID,0.239063,
2009-04-07, 01:01:04,VALID,999.163,VALID,0,VALID,94.5997,VALID,0.112286,VALID,23.1159,VALID,102,VALID,0.386719,
2009-04-07, 01:02:04,VALID,999.182,VALID,0,VALID,94.4089,VALID,0.112286,VALID,23.0378,VALID,37,VALID,0.598437,
2009-04-07, 01:03:04,VALID,999.203,VALID,0,VALID,94.4089,VALID,0.112286,VALID,22.9793,VALID,37,VALID,0.462109,
2009-04-07, 01:04:04,VALID,999.215,VALID,0,VALID,94.4623,VALID,0.112286,VALID,22.9598,VALID,37,VALID,0.320313,
2009-04-07, 01:05:04,VALID,999.241,VALID,0,VALID,94.5081,VALID,0,VALID,22.9403,VALID,37,VALID,0.386719,
2009-04-07, 01:06:04,VALID,999.241,VALID,0,VALID,94.7523,VALID,0.112286,VALID,22.9811,VALID,90,VALID,0.610547,
2009-04-07, 01:07:04,VALID,999.265,VALID,0,VALID,94.8972,VALID,0,VALID,23.0006,VALID,123,VALID,0.983203,
2009-04-07, 01:08:04,VALID,999.298,VALID,0,VALID,94.8972,VALID,0,VALID,23.0396,VALID,141,VALID,1.09609,
2009-04-07, 01:09:04,VALID,999.315,VALID,0,VALID,94.9811,VALID,0,VALID,23.0804,VALID,142,VALID,1.16523,
2009-04-07, 01:10:04,VALID,999.336,VALID,0,VALID,95.004,VALID,0,VALID,23.1176,VALID,150,VALID,0.926953,
2009-04-07, 01:11:04,VALID,999.334,VALID,0,VALID,94.9888,VALID,0,VALID,23.1371,VALID,150,VALID,0.920313,
2009-04-07, 01:12:04,VALID,999.338,VALID,0,VALID,94.9811,VALID,0,VALID,23.1566,VALID,148,VALID,0.699609,
2009-04-07, 01:13:04,VALID,999.263,VALID,0,VALID,94.9125,VALID,0,VALID,23.1566,VALID,148,VALID,0.412891,
2009-04-07, 01:14:04,VALID,999.257,VALID,0,VALID,94.882,VALID,0,VALID,23.1371,VALID,148,VALID,0.457031,
2009-04-07, 01:15:04,VALID,999.222,VALID,0,VALID,94.8896,VALID,0,VALID,23.1371,VALID,148,VALID,0.175391,
2009-04-07, 01:16:04,VALID,999.228,VALID,0,VALID,94.8667,VALID,0,VALID,23.1371,VALID,148,VALID,0,
2009-04-07, 01:17:04,VALID,999.224,VALID,0,VALID,94.8057,VALID,0,VALID,23.1176,VALID,148,VALID,0,
2009-04-07, 01:18:04,VALID,999.259,VALID,0,VALID,94.8591,VALID,0,VALID,23.1371,VALID,148,VALID,0.0675781,
2009-04-07, 01:19:04,VALID,999.248,VALID,0,VALID,94.8057,VALID,0,VALID,23.0981,VALID,148,VALID,0.221094,
2009-04-07, 01:20:04,VALID,999.247,VALID,0,VALID,94.8667,VALID,0,VALID,23.0981,VALID,148,VALID,0.328906,
2009-04-07, 01:21:04,VALID,999.28,VALID,0,VALID,94.7904,VALID,0,VALID,23.0981,VALID,148,VALID,0.387891,
2009-04-07, 01:22:04,VALID,999.232,VALID,0,VALID,94.8209,VALID,0,VALID,23.0981,VALID,148,VALID,0.455469,
2009-04-07, 01:23:04,VALID,999.236,VALID,0,VALID,94.8438,VALID,0,VALID,23.0786,VALID,132,VALID,0.396094,
2009-04-07, 01:24:04,VALID,999.205,VALID,0,VALID,94.9048,VALID,0,VALID,23.0981,VALID,132,VALID,0.285937,
2009-04-07, 01:25:04,VALID,999.215,VALID,0,VALID,94.9048,VALID,0,VALID,23.1176,VALID,132,VALID,0.0222656,
2009-04-07, 01:26:04,VALID,999.152,VALID,0,VALID,94.9048,VALID,0,VALID,23.0981,VALID,132,VALID,0.0953125,
2009-04-07, 01:27:04,VALID,999.142,VALID,0,VALID,94.8514,VALID,0,VALID,23.0786,VALID,132,VALID,0.246875,
2009-04-07, 01:28:04,VALID,999.111,VALID,0,VALID,94.7904,VALID,0,VALID,23.0396,VALID,126,VALID,0.117969,
2009-04-07, 01:29:04,VALID,999.066,VALID,0,VALID,94.7675,VALID,0,VALID,23.0201,VALID,126,VALID,0.116406,
2009-04-07, 01:30:04,VALID,999.044,VALID,0,VALID,94.7828,VALID,0,VALID,23.0201,VALID,126,VALID,0,
2009-04-07, 01:31:04,VALID,998.996,VALID,0,VALID,94.8743,VALID,0,VALID,23.0413,VALID,126,VALID,0.05,
2009-04-07, 01:32:04,VALID,998.998,VALID,0,VALID,94.8285,VALID,0,VALID,23.0201,VALID,126,VALID,0.302734,
2009-04-07, 01:33:04,VALID,998.993,VALID,0,VALID,94.882,VALID,0,VALID,23.0201,VALID,126,VALID,0.0707031,
2009-04-07, 01:34:04,VALID,998.972,VALID,0,VALID,94.8896,VALID,0,VALID,23.0396,VALID,126,VALID,0,
2009-04-07, 01:35:04,VALID,998.968,VALID,0,VALID,94.8972,VALID,0,VALID,23.0608,VALID,126,VALID,0,
2009-04-07, 01:36:04,VALID,998.944,VALID,0,VALID,94.882,VALID,0,VALID,23.0201,VALID,126,VALID,0.00429688,
2009-04-07, 01:37:04,VALID,998.951,VALID,0,VALID,94.9048,VALID,0,VALID,23.0183,VALID,126,VALID,0,
2009-04-07, 01:38:04,VALID,998.895,VALID,0,VALID,94.9277,VALID,0,VALID,23.0396,VALID,126,VALID,0,
2009-04-07, 01:39:04,VALID,998.911,VALID,0,VALID,94.9735,VALID,0.112286,VALID,23.0378,VALID,126,VALID,0,
2009-04-07, 01:40:04,VALID,998.886,VALID,0,VALID,94.9048,VALID,0,VALID,23.0396,VALID,126,VALID,0,
2009-04-07, 01:41:04,VALID,998.865,VALID,0,VALID,94.9277,VALID,0,VALID,23.0378,VALID,126,VALID,0,
2009-04-07, 01:42:04,VALID,998.855,VALID,0,VALID,94.9888,VALID,0.112286,VALID,23.0378,VALID,126,VALID,0,
2009-04-07, 01:43:04,VALID,998.857,VALID,0,VALID,95.0345,VALID,0,VALID,23.0573,VALID,126,VALID,0.567578,
2009-04-07, 01:44:04,VALID,998.843,VALID,0,VALID,95.0498,VALID,0,VALID,23.0964,VALID,112,VALID,0.577344,
2009-04-07, 01:45:04,VALID,998.794,VALID,0,VALID,95.0269,VALID,0.112286,VALID,23.1159,VALID,76,VALID,0.750391,
2009-04-07, 01:46:04,VALID,998.784,VALID,0,VALID,94.9735,VALID,0,VALID,23.1159,VALID,66,VALID,0.821094,
2009-04-07, 01:47:04,VALID,998.776,VALID,0,VALID,94.8591,VALID,0,VALID,23.0769,VALID,60,VALID,0.75625,
2009-04-07, 01:48:04,VALID,998.779,VALID,0,VALID,94.798,VALID,0,VALID,23.0769,VALID,60,VALID,0.520312,
2009-04-07, 01:49:04,VALID,998.742,VALID,0,VALID,94.6912,VALID,0,VALID,23.0201,VALID,22,VALID,0.692578,
2009-04-07, 01:50:04,VALID,998.7,VALID,0,VALID,94.5615,VALID,0,VALID,22.9208,VALID,357,VALID,0.591016,
2009-04-07, 01:51:04,VALID,998.699,VALID,0,VALID,94.5844,VALID,0,VALID,22.9013,VALID,355,VALID,0.363672,
2009-04-07, 01:52:04,VALID,998.67,VALID,0,VALID,94.6988,VALID,0,VALID,22.8818,VALID,355,VALID,0.199219,
2009-04-07, 01:53:04,VALID,998.648,VALID,0,VALID,94.7675,VALID,0.112286,VALID,22.8818,VALID,355,VALID,0.101953,
2009-04-07, 01:54:04,VALID,998.636,VALID,0,VALID,94.7828,VALID,0,VALID,22.8818,VALID,355,VALID,0,
2009-04-07, 01:55:04,VALID,998.618,VALID,0,VALID,94.8285,VALID,0.112286,VALID,22.8818,VALID,355,VALID,0.194531,
2009-04-07, 01:56:04,VALID,998.589,VALID,0,VALID,94.8743,VALID,0,VALID,22.8818,VALID,355,VALID,0.539453,
2009-04-07, 01:57:04,VALID,998.583,VALID,0,VALID,94.8438,VALID,0,VALID,22.8818,VALID,355,VALID,0.596094,
2009-04-07, 01:58:04,VALID,998.562,VALID,0,VALID,94.9201,VALID,0,VALID,22.8818,VALID,355,VALID,0.701953,
2009-04-07, 01:59:04,VALID,998.518,VALID,0,VALID,95.0727,VALID,0,VALID,22.9208,VALID,355,VALID,0.622266,
2009-04-07, 02:00:04,VALID,998.514,VALID,0,VALID,94.9735,VALID,0,VALID,22.9208,VALID,360,VALID,0.650781,
2009-04-07, 02:01:04,VALID,998.536,VALID,0,VALID,94.9506,VALID,0,VALID,22.9013,VALID,16,VALID,0.910156,
2009-04-07, 02:02:04,VALID,998.583,VALID,0,VALID,94.9201,VALID,0,VALID,22.8623,VALID,23,VALID,0.970703,
2009-04-07, 02:03:04,VALID,998.578,VALID,0,VALID,94.8972,VALID,0,VALID,22.8427,VALID,24,VALID,0.973828,
2009-04-07, 02:04:04,VALID,998.596,VALID,0,VALID,95.004,VALID,0,VALID,22.864,VALID,33,VALID,0.904688,
2009-04-07, 02:05:04,VALID,998.627,VALID,0,VALID,95.0117,VALID,0,VALID,22.864,VALID,38,VALID,1.02344,
2009-04-07, 02:06:04,VALID,998.654,VALID,0,VALID,95.0498,VALID,0,VALID,22.8623,VALID,55,VALID,1.11133,
2009-04-07, 02:07:04,VALID,998.655,VALID,0,VALID,95.0269,VALID,0,VALID,22.8427,VALID,64,VALID,1.09844,
2009-04-07, 02:08:04,VALID,998.665,VALID,0,VALID,95.0117,VALID,0.112286,VALID,22.8232,VALID,69,VALID,0.969922,
2009-04-07, 02:09:04,VALID,998.695,VALID,0,VALID,95.0422,VALID,0,VALID,22.8232,VALID,77,VALID,0.946875,
2009-04-07, 02:10:04,VALID,998.707,VALID,0,VALID,95.088,VALID,0.112286,VALID,22.8427,VALID,78,VALID,0.966406,
2009-04-07, 02:11:04,VALID,998.771,VALID,0,VALID,95.0498,VALID,0.112286,VALID,22.8427,VALID,78,VALID,0.951563,
2009-04-07, 02:12:04,VALID,998.769,VALID,0,VALID,95.0193,VALID,0.112286,VALID,22.8232,VALID,79,VALID,0.792578,
2009-04-07, 02:13:04,VALID,998.818,VALID,0,VALID,94.9888,VALID,0.112286,VALID,22.8037,VALID,79,VALID,0.705078,
2009-04-07, 02:14:04,VALID,998.847,VALID,0,VALID,95.0193,VALID,0.112286,VALID,22.7842,VALID,80,VALID,0.515625,
2009-04-07, 02:15:04,VALID,998.885,VALID,0,VALID,94.9964,VALID,0.112286,VALID,22.7647,VALID,107,VALID,0.580859,
2009-04-07, 02:16:04,VALID,998.935,VALID,0,VALID,95.0498,VALID,0,VALID,22.7647,VALID,123,VALID,0.552344,
2009-04-07, 02:17:04,VALID,998.923,VALID,0,VALID,95.1032,VALID,0,VALID,22.7647,VALID,123,VALID,0.837109,
2009-04-07, 02:18:04,VALID,998.945,VALID,0,VALID,95.1337,VALID,0,VALID,22.8037,VALID,146,VALID,0.769141,
2009-04-07, 02:19:04,VALID,998.914,VALID,0,VALID,95.2024,VALID,0,VALID,22.8427,VALID,171,VALID,0.809766,
2009-04-07, 02:20:04,VALID,998.914,VALID,0,VALID,95.21,VALID,0,VALID,22.8818,VALID,171,VALID,0.890625,
2009-04-07, 02:21:04,VALID,998.891,VALID,0,VALID,95.2177,VALID,0.112286,VALID,22.9013,VALID,164,VALID,0.833984,
2009-04-07, 02:22:04,VALID,998.908,VALID,0,VALID,95.2558,VALID,0,VALID,22.9403,VALID,147,VALID,1.01875,
2009-04-07, 02:23:04,VALID,998.875,VALID,0,VALID,95.2405,VALID,0,VALID,22.9988,VALID,149,VALID,0.957031,
2009-04-07, 02:24:04,VALID,998.865,VALID,0,VALID,95.2253,VALID,0,VALID,22.9988,VALID,153,VALID,1.06602,
2009-04-07, 02:25:04,VALID,998.878,VALID,0,VALID,95.2482,VALID,0.112286,VALID,23.0573,VALID,148,VALID,1.15547,
2009-04-07, 02:26:04,VALID,998.85,VALID,0,VALID,95.2405,VALID,0,VALID,23.0769,VALID,145,VALID,1.07187,
2009-04-07, 02:27:04,VALID,998.832,VALID,0,VALID,95.2253,VALID,0,VALID,23.1159,VALID,144,VALID,0.845703,
2009-04-07, 02:28:04,VALID,998.867,VALID,0,VALID,95.1948,VALID,0.112286,VALID,23.1354,VALID,151,VALID,0.861328,
2009-04-07, 02:29:04,VALID,998.855,VALID,0,VALID,95.1795,VALID,0,VALID,23.1549,VALID,150,VALID,0.844922,
2009-04-07, 02:30:04,VALID,998.857,VALID,0,VALID,95.1261,VALID,0.112286,VALID,23.1549,VALID,145,VALID,0.757813,
2009-04-07, 02:31:04,VALID,998.859,VALID,0,VALID,95.1185,VALID,0,VALID,23.1549,VALID,142,VALID,0.388281,
2009-04-07, 02:32:04,VALID,998.888,VALID,0,VALID,95.1032,VALID,0.112286,VALID,23.1354,VALID,142,VALID,0.272656,
2009-04-07, 02:33:04,VALID,998.831,VALID,0,VALID,95.0574,VALID,0,VALID,23.1354,VALID,142,VALID,0.170703,
2009-04-07, 02:34:04,VALID,998.806,VALID,0,VALID,95.0498,VALID,0,VALID,23.1354,VALID,97,VALID,0.503516,
2009-04-07, 02:35:04,VALID,998.783,VALID,0,VALID,95.0422,VALID,0,VALID,23.1159,VALID,76,VALID,0.690625,
2009-04-07, 02:36:04,VALID,998.783,VALID,0,VALID,95.0345,VALID,0,VALID,23.1371,VALID,76,VALID,0.708203,
2009-04-07, 02:37:04,VALID,998.777,VALID,0,VALID,94.9811,VALID,0,VALID,23.0964,VALID,63,VALID,0.670313,
2009-04-07, 02:38:04,VALID,998.819,VALID,0,VALID,94.9964,VALID,0,VALID,23.0964,VALID,70,VALID,0.692187,
2009-04-07, 02:39:04,VALID,998.81,VALID,0,VALID,94.9659,VALID,0,VALID,23.0964,VALID,70,VALID,0.450781,
2009-04-07, 02:40:04,VALID,998.831,VALID,0,VALID,94.9964,VALID,0,VALID,23.0769,VALID,70,VALID,0.703516,
2009-04-07, 02:41:04,VALID,998.835,VALID,0,VALID,95.0498,VALID,0,VALID,23.0769,VALID,83,VALID,0.828516,
2009-04-07, 02:42:04,VALID,998.857,VALID,0,VALID,95.0422,VALID,0.112286,VALID,23.0964,VALID,100,VALID,0.739453,
2009-04-07, 02:43:04,VALID,998.816,VALID,0,VALID,95.088,VALID,0,VALID,23.0964,VALID,108,VALID,0.895703,
2009-04-07, 02:44:04,VALID,998.831,VALID,0,VALID,95.0117,VALID,0,VALID,23.0964,VALID,106,VALID,0.395312,
2009-04-07, 02:45:04,VALID,998.797,VALID,0,VALID,95.0498,VALID,0,VALID,23.0946,VALID,122,VALID,0.545313,
2009-04-07, 02:46:04,VALID,998.752,VALID,0,VALID,95.0651,VALID,0,VALID,23.1159,VALID,122,VALID,0.351172,
2009-04-07, 02:47:04,VALID,998.746,VALID,0,VALID,95.0574,VALID,0,VALID,23.1354,VALID,124,VALID,0.142578,
2009-04-07, 02:48:04,VALID,998.728,VALID,0,VALID,95.0574,VALID,0,VALID,23.1354,VALID,126,VALID,0.281641,
2009-04-07, 02:49:04,VALID,998.742,VALID,0,VALID,95.004,VALID,0.112286,VALID,23.1159,VALID,126,VALID,0,
2009-04-07, 02:50:04,VALID,998.747,VALID,0,VALID,95.0193,VALID,0,VALID,23.1159,VALID,126,VALID,0,
2009-04-07, 02:51:04,VALID,998.709,VALID,0,VALID,94.9888,VALID,0,VALID,23.1159,VALID,126,VALID,0.271875,
2009-04-07, 02:52:04,VALID,998.715,VALID,0,VALID,95.0117,VALID,0,VALID,23.1176,VALID,126,VALID,0.129688,
2009-04-07, 02:53:04,VALID,998.705,VALID,0,VALID,94.9659,VALID,0,VALID,23.0981,VALID,139,VALID,0.302734,
2009-04-07, 02:54:04,VALID,998.683,VALID,0,VALID,94.9277,VALID,0,VALID,23.0786,VALID,170,VALID,0.567187,
2009-04-07, 02:55:04,VALID,998.7,VALID,0,VALID,94.9048,VALID,0,VALID,23.0591,VALID,165,VALID,0.403516,
2009-04-07, 02:56:04,VALID,998.69,VALID,0,VALID,94.9125,VALID,0,VALID,23.0378,VALID,173,VALID,0.413672,
2009-04-07, 02:57:04,VALID,998.668,VALID,0,VALID,94.9735,VALID,0,VALID,23.0786,VALID,216,VALID,0.589844,
2009-04-07, 02:58:04,VALID,998.648,VALID,0,VALID,94.9201,VALID,0,VALID,23.0786,VALID,216,VALID,0.537891,
2009-04-07, 02:59:04,VALID,998.651,VALID,0,VALID,94.9277,VALID,0,VALID,23.0786,VALID,216,VALID,0.332812,
2009-04-07, 03:00:04,VALID,998.655,VALID,0,VALID,94.8972,VALID,0,VALID,23.0786,VALID,205,VALID,0.495313,
2009-04-07, 03:01:04,VALID,998.664,VALID,0,VALID,94.9048,VALID,0,VALID,23.0981,VALID,204,VALID,0.39375,
2009-04-07, 03:02:04,VALID,998.631,VALID,0,VALID,94.8972,VALID,0,VALID,23.0981,VALID,204,VALID,0.455469,
2009-04-07, 03:03:04,VALID,998.636,VALID,0,VALID,94.8362,VALID,0,VALID,23.0786,VALID,204,VALID,0.287891,
2009-04-07, 03:04:04,VALID,998.593,VALID,0,VALID,94.8285,VALID,0,VALID,23.0981,VALID,204,VALID,0.327734,
2009-04-07, 03:05:04,VALID,998.616,VALID,0,VALID,94.8285,VALID,0,VALID,23.0981,VALID,204,VALID,0.2,
2009-04-07, 03:06:04,VALID,998.623,VALID,0,VALID,94.7523,VALID,0,VALID,23.0981,VALID,204,VALID,0.171875,
2009-04-07, 03:07:04,VALID,998.631,VALID,0,VALID,94.7675,VALID,0,VALID,23.0786,VALID,204,VALID,0.0117188,
2009-04-07, 03:08:04,VALID,998.615,VALID,0,VALID,94.7141,VALID,0,VALID,23.0786,VALID,204,VALID,0.0171875,
2009-04-07, 03:09:04,VALID,998.587,VALID,0,VALID,94.6836,VALID,0,VALID,23.0591,VALID,204,VALID,0.164844,
2009-04-07, 03:10:04,VALID,998.596,VALID,0,VALID,94.6836,VALID,0,VALID,23.0591,VALID,204,VALID,0.702344,
2009-04-07, 03:11:04,VALID,998.574,VALID,0,VALID,94.676,VALID,0,VALID,23.0591,VALID,41,VALID,0.810547,
2009-04-07, 03:12:04,VALID,998.635,VALID,0,VALID,94.5157,VALID,0,VALID,22.9988,VALID,33,VALID,1.19961,
2009-04-07, 03:13:04,VALID,998.604,VALID,0,VALID,94.4013,VALID,0,VALID,23.0396,VALID,36,VALID,0.911328,
2009-04-07, 03:14:04,VALID,998.617,VALID,0,VALID,94.2945,VALID,0,VALID,23.0006,VALID,54,VALID,0.868359,
2009-04-07, 03:15:04,VALID,998.644,VALID,0,VALID,94.3708,VALID,0,VALID,23.0201,VALID,57,VALID,0.989844,
2009-04-07, 03:16:04,VALID,998.687,VALID,0,VALID,94.2792,VALID,0,VALID,23.0396,VALID,57,VALID,1.11094,
2009-04-07, 03:17:04,VALID,998.69,VALID,0,VALID,94.1266,VALID,0,VALID,23.0201,VALID,55,VALID,0.955859,
2009-04-07, 03:18:04,VALID,998.759,VALID,0,VALID,94.1266,VALID,0,VALID,23.0201,VALID,50,VALID,0.992188,
2009-04-07, 03:19:04,VALID,998.812,VALID,0,VALID,94.0732,VALID,0,VALID,23.0396,VALID,47,VALID,0.999609,
2009-04-07, 03:20:04,VALID,998.834,VALID,0,VALID,94.0274,VALID,0,VALID,22.9988,VALID,46,VALID,0.791016,
2009-04-07, 03:21:04,VALID,998.869,VALID,0,VALID,94.0503,VALID,0,VALID,23.0201,VALID,46,VALID,0.773047,
2009-04-07, 03:22:04,VALID,998.858,VALID,0,VALID,94.0808,VALID,0,VALID,23.0006,VALID,46,VALID,0.55,
2009-04-07, 03:23:04,VALID,998.855,VALID,0,VALID,94.1343,VALID,0,VALID,23.0006,VALID,46,VALID,0.451953,
2009-04-07, 03:24:04,VALID,998.841,VALID,0,VALID,94.18,VALID,0,VALID,22.9793,VALID,49,VALID,0.515234,
2009-04-07, 03:25:04,VALID,998.851,VALID,0,VALID,94.2563,VALID,0,VALID,23.0201,VALID,64,VALID,0.56875,
2009-04-07, 03:26:04,VALID,998.818,VALID,0,VALID,94.2563,VALID,0,VALID,23.0201,VALID,64,VALID,0.389844,
2009-04-07, 03:27:04,VALID,998.793,VALID,0,VALID,94.1953,VALID,0,VALID,23.0006,VALID,64,VALID,0.118359,
2009-04-07, 03:28:04,VALID,998.804,VALID,0,VALID,94.1953,VALID,0,VALID,22.9793,VALID,64,VALID,0.208594,
2009-04-07, 03:29:04,VALID,998.74,VALID,0,VALID,94.2334,VALID,0,VALID,22.9811,VALID,180,VALID,0.376953,
2009-04-07, 03:30:04,VALID,998.752,VALID,0,VALID,94.2716,VALID,0,VALID,23.0006,VALID,181,VALID,0.4125,
2009-04-07, 03:31:04,VALID,998.7,VALID,0,VALID,94.3326,VALID,0,VALID,23.0006,VALID,166,VALID,0.608984,
2009-04-07, 03:32:04,VALID,998.677,VALID,0,VALID,94.3479,VALID,0,VALID,23.0006,VALID,208,VALID,0.748047,
2009-04-07, 03:33:04,VALID,998.664,VALID,0,VALID,94.3479,VALID,0,VALID,22.9988,VALID,192,VALID,0.690625,
2009-04-07, 03:34:04,VALID,998.675,VALID,0,VALID,94.3937,VALID,0,VALID,23.0591,VALID,185,VALID,0.913672,
2009-04-07, 03:35:04,VALID,998.668,VALID,0,VALID,94.3326,VALID,0,VALID,23.0981,VALID,176,VALID,0.938281,
2009-04-07, 03:36:04,VALID,998.677,VALID,0,VALID,94.2411,VALID,0,VALID,23.0981,VALID,167,VALID,0.888672,
2009-04-07, 03:37:04,VALID,998.677,VALID,0,VALID,94.18,VALID,0,VALID,23.1371,VALID,165,VALID,0.816016,
2009-04-07, 03:38:04,VALID,998.652,VALID,0,VALID,94.0808,VALID,0,VALID,23.1566,VALID,165,VALID,0.628125,
2009-04-07, 03:39:04,VALID,998.651,VALID,0,VALID,94.0503,VALID,0,VALID,23.1566,VALID,165,VALID,0.354297,
2009-04-07, 03:40:04,VALID,998.612,VALID,0,VALID,93.9893,VALID,0,VALID,23.1762,VALID,184,VALID,0.219141,
2009-04-07, 03:41:04,VALID,998.605,VALID,0,VALID,93.9054,VALID,0,VALID,23.1762,VALID,197,VALID,0.477344,
2009-04-07, 03:42:04,VALID,998.62,VALID,0,VALID,93.852,VALID,0,VALID,23.1957,VALID,211,VALID,0.353125,
2009-04-07, 03:43:04,VALID,998.62,VALID,0,VALID,93.7985,VALID,0,VALID,23.2152,VALID,217,VALID,0.321484,
2009-04-07, 03:44:04,VALID,998.652,VALID,0,VALID,93.6765,VALID,0,VALID,23.2152,VALID,217,VALID,0.266406,